Location: Santiago
(33.4378°S, 70.6505°W)
Time: 08:50:43
(UTC+00:00)

ISS - Pass Details

Date: 07 October 2024
Orbit: 412 x 424 km, 51.6° (Epoch: 09 October)

Event Time Altitude Azimuth Distance (km) Brightness Sun altitude
Exits shadow 09:25:49 - 227° (SW) 2,305 -0.3 -10.1°
Reaches altitude 10° 09:27:43 10° 227° (SW) 1,524 -1.2 -9.7°
Maximum altitude 09:31:09 87° 314° (NW) 429 -3.8 -9.0°
Drops below altitude 10° 09:34:31 10° 44° (NE) 1,498 -0.5 -8.3°
Sets 09:36:36 0° 44° (NE) 2,352 0.5 -7.9°
